Theta_e
288 287 288 290 290 291 291 290 289 288 289 287 285 286 290 290 286 284 289 290 287 290 292 292 293 293 293 295 296 296 296 295 294 294 293 293 293 293 292 292 292 291 290 290 290 289 289 288 287 287 287 287 288 288 288 288 288 287 287 285 285 285 284 283 283 284 283 282 282 281 279 279 278 277 277 277 276 276 276 276 276 275 275 275 275 275 274
287 285 286 286 288 287 288 290 290 290 289 287 287 287 289 289 287 289 290 290 289 293 294 295 295 297 296 296 296 295 294 294 293 293 292 292 292 292 292 292 292 292 292 291 291 290 289 288 287 287 287 287 287 287 287 287 287 287 286 285 284 284 283 283 284 283 282 281 280 279 278 278 277 277 276 276 275 275 275 275 275 275 274 274 274 274 273
286 285 284 285 286 286 285 288 290 290 290 289 288 288 288 288 288 289 289 288 288 295 295 296 295 293 293 293 292 293 294 294 293 293 292 293 293 293 293 293 292 292 292 292 291 290 289 288 287 287 287 287 287 287 287 286 286 286 285 284 284 284 283 284 282 281 280 280 279 278 278 277 277 276 276 275 275 275 274 274 274 273 273 273 274 273 273
284 282 284 283 284 284 284 285 287 288 288 285 286 285 288 287 286 288 287 286 286 293 296 295 293 293 292 292 293 294 294 294 293 293 293 293 293 293 293 293 293 293 292 292 291 290 289 289 288 287 287 287 286 286 286 286 286 286 285 284 284 284 284 282 281 280 280 279 279 278 277 276 276 275 275 274 274 274 273 273 273 273 273 273 272 272 272
283 280 283 283 282 283 280 283 286 288 289 290 289 289 289 289 289 286 284 285 292 292 292 291 291 291 292 293 294 294 295 295 294 293 294 294 295 295 294 294 293 293 292 292 291 290 290 289 288 288 287 286 286 286 286 286 285 285 284 284 284 284 283 282 281 280 279 278 278 277 276 275 274 274 273 273 273 272 272 273 272 272 273 272 272 272 271
279 277 282 283 281 275 278 289 293 291 287 287 286 285 287 289 289 288 290 290 292 289 291 291 291 291 291 294 296 298 297 295 294 294 294 294 294 294 295 294 294 293 293 293 292 291 290 290 289 289 288 287 287 287 286 285 285 284 284 284 284 284 282 281 280 279 278 278 277 276 275 274 273 272 272 272 272 272 272 271 272 272 271 270 271 270 270
277 280 281 279 274 278 286 286 291 293 292 290 288 288 289 289 290 290 289 290 289 290 292 292 293 294 294 294 294 294 294 297 295 294 293 293 293 293 293 293 293 293 293 292 292 291 290 290 290 289 288 287 287 286 286 285 285 284 284 284 283 282 281 280 279 278 278 277 276 275 274 273 272 272 271 272 271 271 271 271 271 270 270 269 269 269 268
280 278 280 273 275 284 285 286 286 287 289 290 289 287 289 290 290 290 289 290 292 293 292 293 292 289 287 288 289 290 290 292 293 292 292 292 292 291 292 292 292 292 292 292 291 291 291 290 289 289 288 287 286 286 286 285 284 284 283 283 283 281 280 279 278 278 277 276 276 274 273 272 271 271 271 271 270 271 271 271 270 270 270 269 268 267 267
275 279 278 279 284 284 286 283 283 286 285 284 285 281 285 289 290 290 289 290 291 291 291 289 285 286 287 287 289 290 289 289 290 291 291 291 291 291 292 292 292 293 293 292 292 292 291 290 289 288 288 287 286 285 284 284 283 283 283 283 282 281 280 279 278 277 277 276 275 273 272 271 271 271 271 270 270 270 269 270 269 269 268 268 267 267 266
283 278 277 278 278 275 281 289 289 289 289 288 288 285 283 288 289 291 290 289 290 290 289 286 285 287 286 285 288 291 290 290 289 290 291 290 290 290 290 289 289 289 289 290 291 290 289 289 289 288 287 286 286 284 284 283 283 283 283 282 282 281 280 279 278 277 277 276 274 273 272 271 270 271 271 270 269 269 269 268 268 268 267 267 266 266 265
281 279 276 276 275 278 287 284 284 287 288 287 287 284 279 287 287 288 288 288 289 289 287 284 286 286 283 284 288 290 288 288 288 288 288 288 288 288 288 287 287 287 287 288 288 288 288 288 288 287 286 286 285 283 283 283 283 282 282 282 282 281 280 279 278 277 276 275 274 273 271 271 270 270 269 269 269 268 267 268 267 267 266 266 266 265 265
282 280 278 276 281 281 285 283 283 285 288 288 286 275 277 286 286 288 288 288 289 289 288 286 286 285 283 285 288 286 288 288 288 287 287 286 286 286 286 286 287 286 286 286 286 286 286 287 287 286 285 285 284 283 282 282 282 281 282 282 283 281 281 279 277 276 275 274 273 272 271 270 269 269 269 268 267 267 266 267 267 267 266 265 264 264 265
282 282 280 282 282 287 285 283 284 285 286 286 278 274 281 283 284 285 289 289 290 289 287 286 284 287 289 287 285 285 284 284 284 285 285 286 286 285 285 285 286 285 285 285 285 286 286 287 285 285 284 284 283 283 282 281 281 282 282 283 282 281 279 277 276 274 273 273 272 271 270 269 268 267 268 267 266 266 265 266 266 265 264 263 263 263 264
280 281 279 280 283 288 285 284 284 286 285 276 276 283 284 285 284 285 288 288 290 288 287 286 287 288 289 284 284 283 284 284 285 284 283 283 283 284 285 285 285 284 284 285 285 285 286 285 283 283 283 282 282 282 281 280 281 282 282 282 281 280 278 276 274 272 271 270 270 268 267 267 266 266 266 266 265 264 265 265 263 262 262 263 263 263 264
282 281 278 278 274 284 284 284 283 284 281 283 285 283 283 285 286 285 286 287 287 287 286 287 287 287 284 284 283 284 284 284 284 283 283 283 282 282 282 283 284 284 284 284 284 285 285 283 282 282 282 281 281 281 280 281 282 282 282 281 280 278 276 274 271 270 269 267 266 265 264 265 265 265 263 262 262 263 262 262 261 261 261 262 262 263 263
278 278 275 277 284 282 284 286 283 284 286 287 285 285 283 284 284 285 286 286 287 287 286 286 286 286 284 284 284 284 284 284 283 283 284 284 284 283 284 284 284 284 284 284 284 284 282 281 281 281 281 280 280 280 280 282 282 281 280 279 277 276 273 272 270 268 266 265 264 263 263 264 264 263 263 262 262 262 262 263 263 263 264 264 263 263 263
282 280 284 283 283 285 286 287 284 288 289 288 287 287 286 283 283 285 286 286 287 286 286 286 285 285 284 283 284 283 284 283 282 282 283 284 284 284 284 284 284 283 284 284 284 282 281 279 280 280 280 280 279 279 281 282 281 279 278 275 274 273 272 270 268 266 264 264 263 263 263 263 263 263 261 261 262 263 262 263 264 264 265 264 263 263 264
286 284 283 284 284 285 286 285 286 285 286 284 284 286 285 285 286 286 286 287 286 285 285 284 284 285 285 284 283 284 284 284 284 284 284 284 284 284 284 283 282 282 282 282 283 281 279 278 278 278 279 280 279 280 281 281 280 277 275 273 272 272 270 268 266 264 263 262 262 262 262 263 263 264 262 262 264 264 263 264 264 263 264 264 263 263 263
282 278 282 283 283 285 285 286 285 285 285 285 285 285 287 288 287 285 286 286 285 285 285 284 284 284 285 284 284 284 284 284 284 284 284 284 284 283 282 283 282 280 280 281 281 281 280 278 277 277 277 279 280 281 280 280 278 275 273 272 271 271 269 267 264 263 263 263 262 261 261 262 263 264 264 264 264 264 264 264 264 264 264 263 263 263 263
280 280 280 280 280 281 282 284 285 285 286 285 284 286 285 285 285 284 284 284 283 284 283 284 284 284 285 284 284 284 284 284 284 284 284 284 284 284 284 284 282 280 280 280 280 280 280 280 277 277 277 277 278 279 277 277 274 272 271 271 271 270 268 266 264 263 264 263 262 261 261 262 263 263 263 264 264 264 264 265 264 264 263 263 263 263 264
281 279 279 280 281 282 283 283 283 285 287 287 284 284 284 283 283 283 283 284 284 284 284 284 284 283 284 284 284 284 284 284 284 284 284 284 285 285 284 283 281 280 280 279 279 280 280 281 279 276 276 276 277 277 275 273 271 271 271 269 270 268 266 265 264 263 265 263 264 263 262 262 264 264 263 263 264 264 264 265 266 265 264 264 264 264 264
277 278 279 280 278 278 282 283 284 285 286 286 285 284 283 283 283 283 283 282 283 283 284 284 284 283 283 284 284 284 284 284 284 284 284 284 284 284 283 282 280 280 279 279 279 279 280 281 280 277 276 275 275 276 274 271 270 270 270 269 268 267 265 265 265 263 264 264 264 264 263 262 263 263 264 266 265 264 263 265 267 268 268 265 265 265 265
278 283 282 284 284 284 285 286 286 286 285 285 284 284 284 284 284 284 283 283 283 282 282 283 283 283 283 284 285 284 284 284 285 285 285 284 283 282 281 280 279 278 279 278 278 278 279 279 279 278 277 275 274 274 272 270 269 270 269 268 268 267 265 265 265 264 264 264 264 264 264 264 263 262 262 264 268 268 267 266 267 269 270 270 270 269 267
284 283 283 284 283 282 284 286 286 286 286 284 284 284 285 285 285 284 284 284 284 284 283 282 283 283 283 284 284 284 284 284 284 284 283 284 283 283 282 281 279 278 277 277 277 277 279 279 279 278 276 275 274 272 271 269 269 269 268 269 268 268 266 266 265 264 265 264 264 263 263 263 263 264 264 263 264 268 270 269 269 270 270 270 271 271 272
283 286 285 285 285 285 287 285 285 285 285 285 284 284 285 285 285 285 284 284 285 284 284 284 283 283 283 283 284 283 283 284 284 284 283 283 283 281 281 279 279 278 278 278 278 279 278 278 277 277 275 274 272 270 269 268 267 268 268 268 269 268 266 266 265 264 265 264 263 263 263 262 262 263 264 264 264 264 266 269 270 270 269 269 270 270 270
287 286 284 284 284 284 285 283 283 283 283 283 283 284 285 285 285 285 285 284 284 285 284 284 284 284 283 282 282 283 283 283 283 282 282 280 280 279 279 278 279 279 279 279 279 278 276 276 276 275 274 271 269 269 267 267 267 267 267 267 268 269 267 266 265 264 264 264 263 263 263 263 262 262 263 264 265 265 263 262 263 265 267 268 268 269 269
286 285 282 281 281 281 283 282 282 284 284 283 283 283 284 284 284 284 284 284 283 283 283 284 284 284 283 282 282 282 282 282 281 281 281 280 280 280 279 279 278 278 277 277 276 275 274 273 273 272 273 272 268 267 266 266 266 266 267 267 267 266 264 264 265 264 264 265 264 263 263 262 262 262 262 263 263 262 263 262 262 261 261 263 266 267 266
285 284 284 280 280 281 282 283 284 285 285 283 283 283 283 283 282 280 279 280 280 280 281 280 280 279 280 281 280 279 279 278 278 278 278 279 280 281 280 278 278 277 276 275 274 273 271 271 271 271 272 269 267 266 265 264 264 265 265 265 266 267 264 263 264 265 265 264 264 263 262 262 262 262 262 261 261 261 261 261 261 260 260 260 260 264 266
283 283 284 284 284 285 285 285 284 284 283 284 284 283 281 279 278 278 279 280 281 281 281 281 280 279 280 280 280 279 279 279 278 278 278 279 278 277 277 275 275 272 271 271 271 270 269 269 269 269 269 265 264 264 263 263 263 264 264 264 265 265 264 263 264 265 264 263 263 262 263 261 261 261 261 261 260 261 260 260 259 260 260 259 258 259 262
283 283 283 283 284 284 283 282 282 283 283 283 281 280 280 279 278 279 280 280 281 280 281 282 282 280 279 278 278 278 277 278 278 278 277 278 276 275 271 269 267 267 267 267 268 267 267 267 268 268 267 262 263 262 262 262 262 262 263 263 264 264 264 262 263 263 262 262 262 262 261 261 261 260 260 260 260 260 259 259 259 258 258 258 259 258 259
283 283 282 282 282 282 282 282 283 283 283 282 281 280 279 279 279 279 280 281 281 281 281 281 280 280 277 277 277 278 278 278 278 277 276 275 273 270 268 269 273 274 274 271 268 268 266 266 266 267 264 261 261 261 261 261 262 262 262 262 262 263 264 263 264 262 262 260 260 260 260 260 260 260 259 259 259 259 259 259 258 258 258 258 258 258 259
282 279 279 280 281 280 280 281 281 281 282 282 279 279 279 278 276 277 279 280 280 280 280 280 279 279 279 279 278 276 275 275 274 273 272 270 266 264 265 266 269 268 266 263 264 265 265 264 264 263 259 260 260 260 261 261 262 262 262 261 262 262 263 263 263 262 260 259 259 259 259 259 259 259 259 259 258 258 258 258 258 257 258 257 257 258 259
278 275 275 275 275 275 277 279 279 279 280 280 280 281 280 280 280 279 279 280 280 280 280 279 279 279 278 277 275 273 273 272 271 270 268 267 265 263 263 264 264 262 262 261 261 262 263 262 263 259 258 259 259 259 260 260 261 262 262 262 262 262 261 263 262 261 259 259 258 258 259 259 259 258 258 258 258 258 258 258 258 257 257 257 258 258 259
282 281 282 282 279 278 277 277 278 278 279 281 281 281 280 280 280 280 279 279 279 278 278 279 279 276 275 274 273 272 270 270 273 273 271 269 266 263 261 261 260 259 259 259 261 263 263 262 260 259 259 258 258 259 259 259 261 261 261 261 261 260 260 261 261 260 258 258 258 258 258 258 258 258 258 258 258 258 257 257 257 257 257 257 257 257 259
286 285 285 285 284 284 283 282 282 281 280 279 280 280 280 280 279 279 279 278 278 278 277 276 275 274 272 271 271 271 269 271 272 271 266 265 263 260 259 257 258 258 258 258 259 260 259 259 258 258 257 257 257 258 258 259 260 261 260 260 260 260 260 260 260 259 258 258 258 257 258 257 258 258 258 257 257 257 257 257 257 257 257 257 257 257 257
284 283 284 283 283 281 281 282 282 280 280 280 279 278 277 277 276 276 276 275 272 271 271 271 271 270 269 269 270 269 268 267 266 264 263 260 259 259 258 258 258 257 258 259 258 258 258 258 258 258 258 257 257 257 258 259 259 259 259 260 259 259 259 259 259 259 258 258 257 257 257 257 257 257 257 257 257 257 257 256 256 256 256 257 257 257 257
283 282 282 281 277 274 273 270 265 267 271 271 270 271 272 269 268 265 264 264 264 264 261 263 267 267 268 266 265 262 262 263 265 264 262 259 260 259 258 257 258 259 259 262 259 257 258 258 258 258 259 258 258 257 258 259 259 259 259 259 259 258 258 258 258 257 257 257 257 257 256 256 256 256 256 256 256 256 256 256 256 256 256 256 257 257 256
267 266 266 266 264 263 259 257 257 260 263 261 259 258 259 259 258 259 260 259 258 259 261 263 264 264 263 261 260 259 259 258 259 259 259 259 259 258 258 260 261 261 261 260 257 257 258 257 258 258 259 259 258 257 258 258 258 258 258 258 258 257 257 257 257 256 256 256 256 256 256 256 256 256 256 256 256 256 256 256 256 256 256 256 256 256 256
267 264 263 261 260 259 258 258 256 255 257 262 259 257 257 257 257 258 258 258 257 257 260 261 261 262 261 262 261 259 257 257 257 257 256 257 259 259 258 256 255 255 255 255 256 258 258 257 258 258 259 257 256 256 257 257 257 258 258 257 257 257 257 257 257 256 256 256 256 256 256 256 256 256 256 256 256 256 256 256 256 256 256 256 256 256 256
260 258 258 259 259 258 257 255 254 254 254 254 256 256 255 256 257 257 257 257 257 256 257 260 262 264 261 260 259 257 256 256 257 257 257 257 257 256 256 256 255 254 255 256 257 258 257 258 258 258 258 257 257 257 256 257 257 257 257 257 257 257 257 257 257 256 256 256 255 255 255 255 255 255 255 256 255 255 255 255 254 254 255 255 255 256 256
255 256 256 256 256 257 256 255 253 252 252 253 253 253 254 255 256 257 257 256 256 256 255 258 260 259 258 257 255 254 254 255 255 256 257 258 258 260 261 258 256 255 256 256 257 257 257 258 258 258 258 258 257 257 256 257 257 258 258 258 257 257 256 256 256 256 256 255 255 255 255 255 255 254 255 255 255 255 255 255 255 255 255 255 255 256 256
254 255 256 255 254 254 253 254 254 253 252 251 251 252 253 254 255 255 255 255 255 255 254 254 255 255 254 254 254 254 254 254 254 254 254 255 257 260 261 256 255 255 256 257 257 257 257 256 257 258 258 258 257 257 257 257 258 257 257 257 257 257 256 256 256 256 256 256 256 256 255 255 255 255 255 255 255 255 255 255 255 255 255 255 255 255 255
252 253 253 253 253 253 253 253 252 252 251 251 250 250 251 252 253 253 253 253 253 253 253 253 253 254 254 254 254 254 254 254 254 254 253 252 251 251 255 256 255 255 256 257 257 257 258 257 257 256 257 257 256 257 257 257 257 257 257 257 256 256 256 256 255 255 255 255 255 255 255 254 254 254 254 255 255 255 255 254 254 254 254 254 254 254 254
251 251 252 252 252 252 253 253 253 252 252 251 250 250 251 251 251 252 252 252 252 253 253 253 253 253 254 255 256 256 256 256 257 257 257 256 255 253 252 254 255 256 257 257 257 257 257 257 256 256 256 256 256 257 257 257 257 256 256 256 256 255 255 255 255 255 255 255 254 255 254 254 254 254 254 254 254 255 255 255 255 255 254 255 255 255 255
251 251 251 251 251 253 253 253 252 251 251 251 250 249 250 250 250 251 252 252 252 252 252 253 253 253 254 255 255 254 255 255 254 256 259 259 258 256 254 255 256 256 256 257 257 257 257 256 256 256 256 256 256 257 257 256 256 256 256 255 255 255 255 255 255 255 255 255 255 255 255 254 254 254 254 254 254 254 254 254 254 254 254 254 254 254 254
251 251 251 251 250 250 251 252 252 253 253 252 251 251 250 250 251 251 251 251 250 250 250 250 250 251 251 251 251 252 253 254 253 253 253 254 255 254 255 255 256 256 256 257 257 257 256 256 256 256 256 256 256 256 256 257 257 257 256 255 254 255 255 255 255 255 255 255 255 255 255 255 254 254 254 254 254 254 254 254 254 254 255 254 254 254 254
251 250 250 250 250 250 251 252 253 254 255 255 254 252 251 250 250 250 249 249 249 249 249 249 248 248 248 249 252 255 256 256 255 255 254 255 255 255 255 255 256 256 256 256 257 256 256 255 256 256 256 256 256 256 256 255 255 255 255 255 255 255 255 255 254 254 255 255 254 254 254 254 254 255 254 253 253 253 253 253 253 253 254 254 254 254 253
250 249 249 249 249 250 251 252 252 252 251 250 250 250 250 250 250 250 250 250 250 250 250 250 250 249 249 250 250 251 252 255 256 255 255 254 255 254 255 256 256 256 256 256 256 255 255 256 256 256 256 255 255 255 255 255 255 255 255 254 254 254 255 255 255 255 254 254 253 253 253 253 253 253 253 253 254 254 254 254 253 254 254 254 254 254 254
249 248 249 250 250 251 252 252 253 252 251 250 250 251 250 250 252 252 252 252 252 253 253 251 250 251 251 251 252 254 254 254 254 255 255 255 255 255 256 256 256 256 257 256 254 255 255 255 255 255 255 255 255 256 255 255 255 255 255 254 254 255 254 254 254 255 254 254 254 253 253 253 253 253 253 253 253 253 253 253 253 254 254 254 254 254 254
251 251 252 252 252 251 252 254 253 252 252 252 252 252 251 253 255 254 254 254 254 254 254 254 254 254 254 254 254 254 253 254 255 255 255 254 254 256 256 256 256 256 256 256 254 255 254 254 254 254 255 255 255 255 255 255 254 254 254 254 254 254 254 254 254 254 253 253 253 253 253 253 253 253 253 253 253 253 253 253 253 253 253 253 253 253 253
252 252 251 251 250 249 248 250 251 252 252 252 252 253 254 255 254 254 255 254 255 255 254 254 255 255 255 255 255 254 253 254 256 256 257 257 256 256 256 256 256 256 256 256 255 255 255 254 254 254 254 254 255 254 255 254 254 254 254 254 253 254 254 254 253 253 253 253 253 253 252 252 252 252 252 252 252 252 253 253 253 253 253 253 253 253 253
250 251 252 252 252 252 252 251 251 252 252 253 254 254 255 255 255 255 255 254 254 254 255 254 254 254 254 255 255 255 255 255 256 257 256 256 257 257 256 256 256 256 255 255 256 254 255 255 254 254 253 254 254 255 254 254 254 254 254 253 254 254 253 254 254 254 253 253 253 253 253 253 253 252 252 252 252 252 252 252 253 253 253 253 253 253 253
Wind_Speed
3 1 1 4 4 3 5 14 14 14 13 12 17 20 16 8 12 13 7 7 8 10 8 10 7 8 8 8 6 5 6 7 8 8 9 10 10 11 11 12 12 12 13 13 14 14 14 14 14 14 13 13 12 11 11 12 10 10 10 9 10 11 10 10 9 9 8 7 7 7 7 7 6 5 5 4 4 4 4 4 3 3 3 3 2 3 2
5 1 2 1 3 1 2 6 11 12 13 17 19 16 13 8 9 10 7 2 6 6 6 6 8 8 6 4 5 5 7 9 9 10 9 10 10 11 12 13 14 14 14 13 12 12 13 14 15 14 13 13 13 13 12 11 11 10 11 11 11 10 10 9 9 9 8 7 7 7 7 7 6 6 5 5 4 4 4 4 4 3 3 3 3 2 1
10 4 1 1 1 2 3 6 7 11 13 10 9 11 8 8 11 15 8 8 12 6 4 3 6 6 5 5 5 7 7 8 9 9 9 9 9 10 10 11 12 12 12 10 10 11 13 14 15 15 14 14 12 12 11 11 10 10 10 12 11 11 11 10 9 8 8 8 8 8 7 7 6 6 6 5 5 5 4 4 4 4 3 3 2 2 1
9 3 6 3 3 2 3 8 13 15 13 11 13 12 9 9 14 10 6 9 14 3 6 5 5 5 6 7 8 7 6 7 8 8 8 8 9 10 10 10 10 10 10 11 12 13 14 14 15 14 14 14 13 13 11 11 11 11 12 12 12 11 10 9 9 9 8 8 8 8 8 7 7 4 4 3 3 3 4 4 3 3 3 3 2 2 1
6 3 4 6 5 2 4 16 20 10 9 9 8 8 10 14 9 7 11 14 6 2 5 7 5 7 7 7 7 6 5 6 7 8 7 7 6 6 7 7 8 8 9 10 11 11 12 13 15 15 14 13 13 12 14 14 12 13 13 12 12 11 10 10 10 9 8 8 8 7 6 6 5 5 4 4 4 4 4 3 4 4 3 3 2 1 1
2 1 5 5 5 6 10 3 6 13 13 14 13 12 12 9 9 9 7 8 3 6 7 9 9 8 9 9 8 6 6 6 6 7 6 5 4 3 4 4 5 7 7 7 9 11 12 13 14 13 14 15 13 14 15 13 14 13 13 12 12 11 10 10 9 8 8 7 6 6 6 6 6 5 5 5 4 4 3 4 4 2 2 3 2 1 1
3 4 6 5 9 12 3 5 3 11 16 13 13 13 11 11 13 12 10 12 7 9 8 8 7 7 5 2 2 2 2 2 5 7 6 5 5 6 5 6 6 7 7 7 8 8 10 11 11 11 12 12 7 11 12 12 13 13 13 12 11 11 11 9 8 8 8 7 7 6 6 6 6 5 5 4 4 4 5 4 4 3 3 2 2 1 2
3 3 7 5 6 2 3 2 3 4 2 7 8 11 14 15 13 11 13 14 13 11 8 6 1 3 3 3 3 2 1 3 4 4 5 6 7 7 7 7 7 7 8 9 9 9 8 8 9 10 11 10 10 10 10 12 13 13 13 13 12 10 8 8 9 9 8 7 7 6 7 6 6 6 6 6 6 5 4 3 2 2 1 2 2 2 2
5 4 8 7 8 12 8 7 5 10 9 8 10 8 13 10 9 10 12 14 13 11 6 5 5 4 3 4 7 7 8 7 6 6 6 7 7 6 5 4 4 4 4 5 6 5 6 7 8 8 9 10 10 11 12 11 11 11 12 12 10 11 11 9 9 9 9 9 7 7 7 7 7 7 7 6 5 4 4 3 3 2 3 2 2 2 2
5 3 2 2 3 9 7 2 6 12 7 7 9 7 10 4 9 12 13 14 13 11 6 7 7 4 1 6 9 6 10 9 9 8 4 1 2 2 3 3 3 3 2 2 4 6 7 7 7 7 8 9 11 10 11 12 13 14 12 10 11 11 9 10 10 9 10 8 9 8 7 8 7 6 5 4 5 4 4 3 3 3 2 2 2 2 3
5 5 6 6 6 8 4 2 3 7 5 8 5 3 8 5 10 10 11 12 11 8 10 8 8 4 5 7 8 2 4 5 7 8 7 5 3 3 3 4 4 5 4 5 5 5 7 8 8 8 10 12 12 11 11 9 10 9 10 11 10 10 10 10 10 8 7 8 9 10 9 6 7 7 6 5 4 3 2 2 3 2 2 2 2 2 3
7 7 7 9 5 6 0 4 2 4 7 9 6 2 7 3 10 9 11 13 9 7 9 9 7 7 5 9 4 4 4 4 5 6 6 6 5 4 4 2 2 3 5 5 5 7 8 8 8 9 8 11 12 11 11 8 11 14 14 16 13 9 8 9 9 8 9 11 10 11 10 7 5 5 5 4 4 4 3 3 3 2 3 2 2 2 2
11 13 9 3 5 4 4 5 7 5 2 4 7 11 1 2 3 1 5 7 7 7 8 9 6 11 7 2 4 3 3 4 2 1 1 2 3 5 5 5 5 4 5 5 6 7 6 6 7 6 7 8 10 11 10 9 15 13 11 8 9 9 9 9 9 10 8 10 11 8 7 8 6 5 4 5 5 4 4 3 3 2 2 1 2 3 3
11 11 11 7 5 2 4 4 8 8 8 6 10 1 3 7 4 4 5 5 5 5 8 7 7 5 2 5 4 5 5 4 3 4 4 4 4 3 4 5 6 5 5 5 4 4 4 5 6 5 8 10 9 10 9 14 17 11 7 10 10 10 10 10 10 9 9 8 7 8 7 7 6 5 4 4 5 5 3 4 4 3 2 2 2 2 2
2 2 7 3 8 1 7 12 6 4 3 2 6 6 3 1 3 7 5 5 3 5 4 7 7 4 4 3 3 2 4 3 4 6 6 6 6 6 6 5 6 6 5 6 6 6 4 4 5 3 8 9 9 9 12 17 11 9 12 11 11 10 10 10 10 10 9 10 9 7 7 6 7 6 5 4 4 3 3 3 4 3 3 3 2 2 2
5 9 9 6 1 4 9 13 6 6 2 3 6 7 3 1 1 4 4 3 4 5 5 7 8 6 5 3 3 3 2 3 3 3 3 2 3 5 5 5 7 5 5 5 5 5 4 4 3 5 10 10 9 11 16 15 9 7 7 7 8 9 9 9 9 9 9 8 8 5 5 6 5 5 6 5 4 4 5 4 4 4 3 4 3 2 2
7 5 3 1 2 4 6 3 5 4 5 3 3 4 7 7 3 3 3 6 5 6 6 5 3 4 5 5 5 5 4 4 4 4 5 6 6 6 6 6 5 5 7 8 7 4 4 4 4 6 8 10 11 13 15 8 8 9 8 9 10 10 10 9 10 9 8 6 5 6 6 6 6 6 5 5 5 5 4 4 3 3 2 2 2 2 2
1 1 4 3 2 3 5 4 3 4 4 2 2 6 5 4 5 6 6 6 5 6 5 4 3 5 4 5 5 4 3 3 4 3 2 3 3 3 3 2 5 6 4 2 4 5 5 6 6 6 8 9 12 16 6 6 6 7 8 10 10 11 9 9 11 11 11 7 5 4 6 5 4 5 6 6 5 5 5 4 4 3 3 3 2 2 2
4 5 6 4 3 3 3 2 2 1 2 2 1 1 3 3 3 4 0 1 3 5 5 6 6 5 5 5 5 5 4 5 5 7 8 7 7 8 7 8 5 4 5 5 7 7 8 8 6 7 10 11 12 5 4 5 6 7 9 10 10 8 10 10 9 9 9 6 6 5 4 4 4 4 5 5 5 5 5 5 4 4 3 3 3 3 3
6 2 4 2 2 1 3 1 2 3 2 3 1 1 3 3 2 2 2 3 2 4 3 6 6 7 4 5 5 5 6 7 8 8 8 9 8 9 9 8 6 5 6 8 8 8 10 10 9 11 11 13 13 8 4 6 7 9 10 10 11 11 12 9 6 7 6 9 8 6 6 6 6 6 5 5 5 6 6 6 5 5 5 5 5 4 4
3 3 1 1 3 2 3 3 5 4 2 2 4 3 2 1 2 2 2 3 3 4 4 4 5 4 5 4 6 6 6 6 6 7 8 9 11 10 7 6 8 9 9 10 11 10 11 9 8 10 11 12 10 9 6 6 9 10 10 10 8 8 9 6 6 6 6 7 7 7 6 6 5 6 6 7 6 4 3 3 4 5 5 5 5 3 3
6 6 6 8 2 2 4 6 7 8 7 4 3 3 3 4 5 5 4 3 4 3 3 3 4 4 5 6 6 8 8 7 7 8 8 8 8 7 5 4 5 6 7 8 9 10 8 5 6 8 9 10 9 9 6 6 8 10 10 9 9 10 8 6 6 7 6 6 6 6 6 7 5 3 5 8 6 4 3 7 9 8 7 5 5 5 5
5 3 9 9 6 6 2 5 6 7 4 5 5 6 7 8 6 5 5 5 5 6 6 5 6 7 7 8 7 8 7 7 8 7 7 7 6 6 4 4 5 6 7 6 6 7 8 4 6 7 8 8 7 7 7 8 9 9 9 8 5 4 6 6 7 8 6 6 6 6 6 6 6 6 4 6 11 11 8 8 10 12 13 13 12 13 9
2 7 6 8 6 6 5 4 5 5 4 5 7 9 9 8 4 6 6 8 8 5 6 8 8 8 8 8 7 8 9 7 7 6 5 6 5 3 3 4 5 6 6 6 8 11 11 7 8 7 7 6 7 8 8 8 8 8 9 9 7 7 6 4 8 6 5 5 6 6 5 5 6 6 6 5 4 11 14 12 12 12 12 13 15 15 16
7 4 7 8 7 7 4 3 5 5 5 7 8 9 7 5 5 6 8 8 8 8 7 6 8 9 10 10 8 8 10 9 7 6 5 6 5 4 4 3 5 6 8 10 10 9 7 6 6 6 7 6 4 6 7 8 9 9 10 11 12 10 7 6 5 8 5 5 6 6 6 7 6 5 5 5 5 4 6 11 12 12 11 12 12 13 13
7 3 3 1 1 1 1 1 3 5 2 3 4 4 7 7 9 7 8 7 6 6 7 8 6 6 8 8 8 8 7 8 6 4 3 3 4 4 5 7 8 6 6 6 6 5 4 5 5 5 6 4 5 7 8 9 10 11 11 11 11 6 7 7 7 7 6 6 6 6 5 5 5 5 5 4 3 5 5 3 3 7 10 11 11 12 12
7 4 6 3 3 6 6 8 8 9 8 9 7 8 9 8 8 7 3 2 3 3 4 6 6 4 4 5 6 7 7 7 2 5 6 6 6 8 8 6 5 5 5 5 4 4 4 4 4 5 8 5 6 8 9 10 10 10 10 9 8 9 12 11 6 6 6 6 6 5 5 5 5 5 5 4 3 4 5 6 6 5 4 5 9 11 8
7 7 9 7 9 10 9 11 12 12 7 9 9 9 9 4 2 2 5 6 4 5 7 5 4 4 6 5 4 6 4 4 7 6 4 8 9 8 4 4 4 4 4 5 5 4 4 4 5 6 8 3 5 6 7 9 10 10 10 8 8 4 5 8 5 5 5 4 5 5 5 4 4 4 3 4 3 3 2 1 1 2 2 3 2 4 9
9 9 11 11 12 10 5 5 8 9 8 6 6 5 3 4 5 5 7 8 7 5 7 5 5 7 8 6 4 5 6 8 8 7 9 8 5 3 2 3 2 1 2 4 4 3 4 4 5 6 4 2 4 5 7 8 9 9 9 8 5 4 4 4 4 4 4 4 4 5 5 4 4 4 4 4 3 4 3 4 3 2 3 2 2 2 5
11 9 8 9 10 8 6 5 7 7 8 8 5 5 5 5 6 7 8 9 6 9 10 9 6 5 5 6 5 6 8 9 10 7 5 4 2 2 3 3 2 0 0 3 5 4 4 4 4 6 2 3 4 6 7 7 7 8 7 8 6 3 3 4 4 3 4 4 5 7 5 5 4 4 5 4 4 4 4 4 4 4 3 3 4 2 2
5 5 9 9 9 7 9 11 11 10 9 6 8 8 6 6 7 8 10 9 8 9 7 7 6 6 4 7 7 7 6 5 4 3 0 1 1 2 3 4 4 4 3 2 1 3 4 4 3 3 1 3 4 6 6 6 5 5 4 4 4 4 8 10 7 5 4 4 5 5 5 5 4 4 4 4 5 5 4 4 4 3 3 3 3 3 3
6 4 5 5 7 7 7 7 10 11 11 5 5 9 10 8 10 12 11 8 8 8 8 7 6 7 8 6 5 4 4 4 4 3 1 1 2 2 3 4 4 3 1 1 1 0 1 1 3 1 2 4 5 5 7 6 4 5 4 5 5 4 7 11 5 6 4 4 4 4 3 5 5 5 4 4 5 5 5 4 4 4 3 3 3 3 2
5 2 1 3 2 4 7 8 9 11 10 9 9 10 8 7 8 8 8 7 5 5 7 7 6 6 5 3 2 3 4 3 2 1 1 3 2 2 1 0 0 1 1 2 1 1 0 1 0 2 2 4 5 6 6 5 4 4 4 4 4 4 5 6 5 5 4 4 4 4 4 3 3 3 4 3 3 3 4 4 4 4 4 3 3 2 3
8 9 10 8 10 10 11 12 10 9 9 9 8 8 6 6 7 8 8 6 5 5 6 7 6 3 2 3 4 4 3 2 3 4 5 4 3 2 2 1 2 2 2 1 1 0 1 1 1 2 2 4 4 4 4 4 3 2 3 4 5 5 5 4 5 4 4 4 4 4 4 3 4 4 2 3 3 3 3 3 3 3 3 3 3 2 5
8 10 9 8 6 7 8 8 7 8 8 9 7 6 6 6 6 7 6 5 6 6 3 2 2 3 3 4 4 4 4 6 4 0 2 3 3 3 3 3 2 2 2 2 2 1 2 1 2 3 3 3 3 3 3 3 3 3 4 4 4 5 5 4 5 4 4 4 4 4 4 4 4 3 2 3 4 3 3 3 3 3 2 2 2 2 3
5 4 6 5 6 5 5 6 5 4 3 4 3 2 4 4 5 5 6 4 0 1 0 0 1 1 2 3 4 4 4 2 0 1 2 3 4 3 3 3 2 1 1 1 1 1 1 2 4 5 3 3 3 2 3 3 2 3 4 4 4 4 3 4 4 4 3 4 4 3 3 3 3 2 3 3 3 3 3 3 3 3 2 2 2 2 2
3 4 4 1 2 3 1 1 2 2 2 2 1 1 1 0 0 0 2 1 2 1 1 1 1 2 3 1 2 3 3 2 2 2 3 3 3 4 4 4 2 1 0 0 2 1 1 2 4 6 3 3 3 3 3 5 3 4 4 4 4 4 4 4 4 4 4 4 4 4 3 3 3 3 3 4 3 4 4 3 3 3 2 2 2 2 2
5 5 3 3 2 2 4 2 2 2 2 5 3 2 1 1 1 1 2 3 3 1 1 1 1 2 3 3 3 4 3 4 4 4 4 4 3 6 3 2 1 1 1 2 1 0 1 3 5 3 2 3 3 4 5 7 7 4 2 3 3 3 3 4 4 3 4 4 3 4 4 4 4 4 4 4 4 4 3 3 3 2 2 2 2 3 3
5 5 5 4 4 5 5 4 5 7 6 2 2 3 2 1 0 1 3 3 2 1 0 2 3 4 3 4 3 4 5 4 4 5 6 5 2 4 4 4 3 3 1 1 0 1 3 4 4 2 3 4 5 5 6 7 6 3 3 3 3 3 3 3 3 2 2 3 4 4 4 4 4 4 4 4 4 3 3 3 3 2 2 2 2 3 3
4 5 5 3 5 4 6 6 5 5 5 5 4 3 5 3 1 2 3 3 3 3 1 1 3 3 3 4 5 4 3 4 3 4 4 4 5 7 5 4 3 1 1 1 1 2 4 6 3 2 4 4 4 4 5 6 5 3 3 3 3 3 2 2 2 3 3 3 3 3 2 2 3 3 3 3 3 3 3 3 4 3 3 3 3 4 3
6 6 5 5 4 4 5 7 7 4 5 5 5 4 4 3 3 2 4 3 3 4 4 2 3 4 4 6 7 5 4 3 4 3 2 3 3 1 1 1 2 1 2 2 2 3 4 3 2 3 4 4 3 5 5 6 3 3 3 3 3 3 3 3 2 3 3 4 3 4 4 4 4 4 3 4 4 4 4 4 3 3 3 3 3 3 4
7 7 5 5 5 4 4 4 3 5 6 6 6 6 6 6 5 4 3 3 4 4 6 7 7 8 7 6 6 6 6 5 5 6 7 5 3 1 1 1 1 1 3 4 4 4 3 2 3 4 3 4 4 7 8 5 3 3 3 3 3 3 3 3 3 2 2 2 3 3 2 2 3 3 3 3 4 3 4 3 3 3 3 3 4 4 4
7 6 5 5 4 3 3 4 5 6 5 5 5 5 5 5 4 4 4 5 5 6 7 7 7 7 7 6 6 7 5 4 5 5 5 4 4 4 3 2 2 1 3 3 2 2 2 2 2 2 4 4 5 9 7 4 3 2 2 2 2 2 2 2 2 2 2 3 3 3 3 4 4 4 4 4 4 4 4 4 4 3 3 3 3 4 5
6 5 5 5 5 6 4 3 5 6 6 4 3 3 4 6 6 5 5 5 6 6 6 5 6 6 5 4 5 5 4 3 2 2 2 2 2 3 3 2 2 2 3 1 2 2 2 2 2 5 7 9 9 6 3 2 2 2 2 2 2 2 3 3 3 3 3 3 4 4 4 4 4 4 4 4 4 4 4 4 4 4 4 4 4 4 5
6 5 5 5 5 4 5 6 7 6 4 3 4 6 6 6 6 5 4 6 7 5 5 5 4 4 3 4 5 5 4 4 4 3 0 1 2 2 1 2 2 2 2 3 2 2 2 2 4 6 6 7 6 4 2 1 1 1 1 1 1 1 1 2 2 2 2 2 3 3 2 3 4 4 4 4 4 4 4 4 4 4 4 4 4 5 6
5 5 5 6 7 6 5 5 4 4 4 5 7 8 8 7 6 6 7 6 6 6 5 5 6 7 6 6 6 4 3 4 4 3 3 3 2 2 2 3 2 3 2 2 2 2 3 5 6 6 6 6 4 1 1 1 1 1 1 1 1 2 2 2 2 3 3 3 3 3 4 3 3 3 3 3 3 4 4 3 3 4 5 5 5 5 5
4 5 5 6 6 4 4 2 2 2 3 5 7 7 7 9 8 6 6 8 7 6 5 5 7 6 5 5 2 2 2 2 3 4 3 3 3 3 4 5 5 3 1 1 2 2 2 2 4 5 5 5 3 0 1 0 0 0 1 1 1 1 2 2 2 2 2 2 2 2 3 3 3 3 3 4 4 5 4 5 5 5 5 4 5 5 6
2 4 4 4 5 4 5 6 7 7 8 6 3 3 4 5 6 6 5 5 6 5 5 4 4 4 4 3 1 1 2 1 2 2 2 2 2 2 2 2 2 4 4 4 4 4 5 4 4 4 4 4 2 0 0 0 0 1 1 1 1 1 2 2 2 2 2 2 2 2 3 4 4 4 4 5 5 4 5 5 5 5 5 5 6 5 6
3 3 3 4 3 5 5 5 6 6 4 2 3 3 1 1 3 3 3 4 4 4 4 4 4 3 2 2 3 3 2 3 2 2 2 2 2 2 2 2 3 1 1 1 1 1 2 3 2 2 2 2 1 1 1 1 1 1 1 2 2 2 2 2 2 2 2 3 3 3 3 3 4 4 4 5 4 5 4 5 6 5 5 5 5 5 6
0 1 2 2 2 3 3 3 4 3 2 2 2 2 0 1 2 3 3 3 3 2 2 3 3 3 2 2 3 3 3 3 4 4 3 2 2 2 2 1 1 3 3 1 0 0 3 1 0 1 1 1 1 1 1 1 1 2 2 2 2 2 3 3 3 3 3 3 3 3 3 4 4 5 4 4 5 5 5 5 5 6 9 7 5 6 5
2 2 2 3 4 4 5 5 3 3 2 2 1 1 1 3 4 2 2 2 2 2 2 2 3 3 3 2 2 2 2 2 3 4 2 2 2 2 2 1 1 1 1 1 0 1 0 0 0 0 0 1 1 1 1 1 1 2 2 2 2 2 2 2 2 3 3 4 3 4 4 4 4 5 5 5 6 6 6 6 6 6 5 5 6 6 6
3 3 4 4 5 5 4 4 3 3 2 1 1 1 2 3 3 3 3 4 2 2 1 1 2 2 3 2 3 2 2 2 1 1 2 1 1 0 1 1 0 0 0 1 1 0 1 0 1 1 2 1 1 2 3 3 3 3 2 3 3 3 3 3 3 3 3 4 4 4 5 5 4 5 5 5 6 6 6 6 6 6 6 6 6 6 6
Wind_Direction
198 357 353 321 335 297 222 195 193 189 187 187 200 218 223 162 207 226 95 156 215 236 193 192 186 187 204 210 197 190 180 168 170 170 175 183 188 187 183 185 183 184 190 194 194 190 188 181 182 184 182 182 182 183 177 175 167 163 158 157 164 167 169 173 169 165 158 152 149 141 140 140 144 153 161 168 179 189 199 197 188 182 180 178 189 176 165
223 325 304 10 307 306 315 219 203 197 185 197 207 219 217 196 235 250 256 178 238 247 256 185 186 191 196 175 121 119 154 168 169 174 176 186 190 188 190 192 195 199 200 196 189 185 182 182 184 185 184 184 186 183 174 173 166 160 159 169 167 170 172 171 163 156 149 146 151 148 148 149 156 158 165 174 186 196 200 198 191 180 174 180 178 172 165
233 217 96 11 74 291 265 269 244 218 210 208 211 223 226 231 250 248 260 283 274 250 200 146 75 77 70 89 164 178 174 170 170 173 186 193 193 195 196 197 201 204 204 196 185 184 187 188 189 188 188 186 182 179 171 168 167 166 162 172 176 177 178 172 152 147 148 155 153 156 155 154 156 160 170 177 191 196 198 199 192 177 180 177 166 154 162
228 177 181 156 100 64 260 268 253 233 211 190 205 213 211 205 228 239 251 248 249 143 124 95 119 131 167 185 190 189 173 166 171 180 192 192 192 192 193 196 199 201 199 196 192 190 191 191 191 191 186 184 180 180 172 175 171 167 171 177 176 176 175 157 156 157 157 155 155 158 154 157 155 161 165 174 193 194 199 198 194 173 173 155 146 158 159
205 17 172 145 114 98 312 238 232 200 212 200 211 222 211 213 204 223 223 234 246 137 147 155 183 179 192 203 198 195 186 183 183 193 196 202 197 181 183 189 189 189 191 192 191 191 190 193 193 193 183 179 182 175 178 180 168 172 177 178 179 179 175 165 162 159 153 155 158 156 157 152 149 152 160 179 194 194 205 192 185 177 155 140 155 144 190
115 328 138 143 153 206 226 338 135 172 193 200 208 218 218 213 194 222 224 245 224 162 183 189 197 193 203 209 215 207 205 188 195 215 207 204 183 184 196 186 187 194 194 196 199 196 194 195 196 192 187 189 189 183 181 172 174 178 177 182 183 181 170 167 158 150 149 154 158 158 150 146 153 162 169 187 190 194 191 195 187 154 141 151 153 168 211
148 146 146 175 213 224 97 265 315 184 194 200 213 232 232 223 220 223 238 242 219 181 192 205 208 213 225 244 237 180 118 192 209 204 196 187 189 207 198 197 200 199 196 195 197 200 199 198 197 196 200 197 166 175 172 172 177 176 183 181 182 176 170 158 148 149 155 157 158 154 149 153 160 169 173 181 180 196 196 193 172 163 160 161 167 181 247
83 147 185 203 220 60 269 211 130 54 80 213 213 241 243 238 225 215 229 237 243 227 191 206 123 65 39 329 279 240 181 198 209 181 186 197 202 209 204 202 201 195 197 198 199 203 197 192 196 194 192 178 167 171 160 169 178 182 184 186 184 167 156 156 160 164 155 160 161 153 156 159 167 174 174 180 189 194 187 175 149 134 141 152 179 204 235
169 196 204 243 347 314 242 162 179 173 179 180 181 210 242 224 204 203 219 232 235 232 202 141 92 77 28 303 269 183 207 208 197 204 209 210 215 210 207 188 193 189 190 193 196 183 180 182 185 189 179 172 159 154 171 179 178 184 185 188 182 173 177 166 166 164 166 166 160 155 158 161 173 175 171 180 190 183 177 170 156 158 156 179 191 201 223
160 182 200 260 239 245 255 175 150 183 176 155 179 187 261 180 187 197 207 224 223 220 166 117 115 106 341 268 262 206 204 196 196 213 215 96 109 142 138 110 110 126 144 154 164 161 170 181 181 169 157 152 156 142 162 177 180 187 184 186 182 176 173 170 167 168 175 166 149 154 159 171 171 171 167 174 181 183 170 161 157 161 173 180 196 210 224
137 201 214 219 227 241 249 96 122 155 151 144 105 195 261 232 180 194 199 214 216 199 149 137 132 141 226 244 251 152 144 174 195 202 209 184 155 137 147 160 159 154 151 160 164 169 175 177 179 163 159 163 168 164 175 168 171 172 185 190 178 172 178 167 170 160 154 143 148 150 155 167 160 163 163 170 163 158 151 140 147 158 177 186 194 217 228
216 206 217 228 211 261 287 137 152 117 116 128 118 231 259 183 167 195 188 205 196 150 143 145 164 177 215 232 227 136 157 172 182 196 194 172 165 153 146 140 142 138 132 133 160 177 185 184 171 159 156 166 177 174 177 155 171 194 197 198 191 170 162 145 138 146 155 167 160 164 151 146 142 147 153 155 157 158 155 158 160 169 174 189 187 231 247
223 220 233 276 277 255 145 147 125 142 105 144 176 225 143 200 148 124 173 193 166 161 152 161 180 215 214 97 116 117 108 109 130 106 91 117 154 162 159 167 145 151 169 181 191 191 186 165 147 144 141 160 175 187 174 174 198 204 196 173 161 150 150 152 158 162 153 166 165 158 139 140 143 143 156 159 153 154 152 161 153 160 165 192 217 234 239
225 221 232 229 282 258 115 133 135 151 129 201 212 229 87 148 171 182 181 186 185 164 173 187 214 228 160 131 134 153 168 161 135 146 136 110 91 86 124 140 154 163 171 190 197 195 186 146 140 144 164 174 185 177 176 199 209 198 170 176 164 163 165 164 161 160 160 152 148 150 142 143 139 147 146 138 146 149 167 152 144 164 189 206 215 232 242
232 232 250 226 243 133 107 113 58 306 200 276 100 114 27 18 150 156 195 189 140 144 171 203 214 207 131 157 162 153 153 146 144 146 157 165 162 160 152 161 191 170 173 187 198 190 165 136 152 147 170 182 190 189 197 212 197 180 193 174 172 170 165 162 163 162 157 153 145 138 139 141 146 143 138 137 139 146 131 133 154 176 193 203 211 229 240
199 202 213 215 284 121 178 144 182 190 166 111 131 123 155 163 184 178 176 201 172 180 194 207 212 208 154 155 173 154 143 150 104 117 146 155 154 160 184 179 176 183 189 183 181 177 146 147 158 167 175 188 194 198 214 213 190 186 175 169 162 164 167 167 156 157 152 145 135 127 140 143 142 140 153 150 158 165 165 172 173 182 191 182 197 210 225
195 212 234 65 327 157 195 36 353 125 128 124 124 133 156 157 216 190 175 194 192 201 211 231 211 192 195 181 176 186 193 180 183 176 189 185 188 183 180 187 171 181 197 188 180 157 157 159 167 176 188 187 197 209 222 195 186 179 170 160 166 171 173 167 162 146 133 137 144 146 148 150 149 153 142 158 167 167 161 182 183 179 190 181 194 219 232
265 348 110 115 53 168 170 68 15 32 92 63 347 135 127 184 161 173 186 198 174 197 199 206 231 215 197 172 184 194 205 193 194 196 183 179 187 189 173 165 166 195 199 141 174 183 174 173 182 188 195 194 199 221 193 185 182 166 160 164 175 181 171 165 160 148 141 127 130 134 152 163 165 163 161 174 178 165 171 180 177 180 184 180 190 206 220
231 247 92 116 121 154 193 139 101 14 16 133 267 48 107 137 136 163 189 143 179 186 172 199 220 228 201 195 196 194 198 203 200 196 204 207 201 199 204 206 167 176 191 200 207 199 206 189 185 192 199 209 217 209 165 175 161 163 166 177 180 171 170 149 128 142 152 157 153 152 165 163 176 171 172 180 179 169 174 174 178 180 180 177 193 202 208
217 264 102 76 39 337 358 303 205 230 202 190 234 14 47 63 74 100 141 110 128 142 170 204 209 235 215 189 195 192 203 207 208 206 206 211 215 216 208 196 177 184 191 209 215 213 221 205 188 199 204 212 215 204 163 156 158 161 177 182 184 182 172 151 150 163 167 157 157 158 177 176 173 180 186 190 182 186 181 178 171 181 175 185 190 196 201
199 103 157 43 24 333 194 216 261 257 223 162 169 186 191 189 186 182 157 205 190 183 210 192 206 227 235 189 199 208 213 206 202 208 211 216 217 214 205 198 181 197 201 208 216 217 226 215 200 203 213 218 214 206 183 158 161 174 187 188 183 168 161 137 155 165 172 159 174 165 170 181 195 190 185 185 189 190 192 181 182 173 174 183 184 189 188
219 226 183 147 156 217 184 202 214 230 225 191 164 150 188 209 214 205 199 219 224 228 235 216 200 215 232 219 209 221 225 218 212 213 219 221 218 212 195 173 193 213 217 216 223 226 236 210 207 211 219 221 211 205 174 166 165 181 186 174 175 169 166 166 163 160 173 165 176 167 164 177 177 195 212 202 193 178 180 199 207 207 190 188 177 178 202
250 148 144 176 199 238 255 186 209 218 184 154 192 222 230 228 197 177 182 225 226 218 218 211 211 220 225 230 214 219 222 223 224 223 221 222 227 210 174 176 196 209 224 226 238 248 249 228 222 218 221 219 205 196 183 175 179 185 172 172 173 172 168 189 173 167 167 163 174 170 167 171 176 184 191 212 216 211 199 193 204 215 218 217 214 216 211
223 121 168 177 186 204 213 162 191 217 184 167 207 232 235 235 178 169 200 216 223 227 200 194 210 217 230 236 234 235 238 231 223 222 223 229 238 218 175 199 210 214 226 221 225 235 238 226 228 224 227 217 197 194 184 179 177 178 181 182 187 188 182 177 158 165 171 159 154 165 164 168 172 176 181 170 191 213 214 214 216 221 224 228 232 238 240
244 153 171 190 203 207 209 181 190 208 202 200 213 227 233 221 219 199 210 221 222 224 234 214 196 208 221 236 231 236 243 246 232 223 236 244 243 223 228 217 221 220 227 221 226 235 239 236 235 231 229 225 176 181 175 174 177 188 194 199 208 197 156 156 167 183 183 166 173 173 166 168 176 182 183 178 169 164 201 220 229 231 232 232 236 237 239
230 182 146 110 56 198 127 68 270 233 167 167 220 239 239 231 235 229 223 221 219 215 221 238 227 188 198 219 230 233 246 251 250 234 217 217 220 227 235 232 233 227 234 236 239 244 244 236 235 234 239 210 167 176 171 177 186 198 200 206 212 200 157 160 163 177 182 176 176 181 176 171 174 177 191 179 166 154 154 177 229 242 236 234 231 233 237
215 157 106 91 226 229 210 200 223 223 200 202 202 221 228 233 229 232 248 247 235 232 230 229 232 223 201 218 227 232 236 256 233 221 228 231 232 233 233 235 237 238 240 247 249 241 232 231 226 231 239 214 174 174 175 179 188 200 204 203 207 209 186 179 174 174 172 175 169 165 161 166 168 175 180 172 152 159 173 181 192 196 191 204 220 223 227
186 172 173 188 212 215 210 215 225 237 221 187 203 217 231 213 178 201 241 253 253 243 238 240 235 237 243 232 206 239 238 241 240 233 224 233 234 239 237 222 222 225 233 238 246 236 223 226 230 236 247 190 156 164 169 176 188 199 202 198 196 180 163 182 174 173 171 162 160 161 157 161 162 168 164 156 162 171 172 192 189 171 168 182 187 220 226
199 199 203 216 226 232 220 203 222 229 229 194 192 202 178 191 220 226 239 237 237 236 250 248 218 224 231 232 198 225 231 234 236 236 232 237 240 232 216 203 200 209 234 248 255 236 228 233 239 248 258 116 148 156 167 175 189 193 186 183 182 178 161 175 171 163 141 137 140 152 155 143 153 160 162 162 163 167 180 186 191 187 181 158 167 241 228
213 202 201 216 229 238 232 217 223 219 223 209 199 211 196 199 217 228 228 236 228 231 236 238 226 227 216 233 233 222 228 232 234 238 236 226 195 160 131 109 84 88 340 264 248 234 230 239 237 251 246 129 148 155 164 175 186 194 195 192 196 171 153 148 157 138 142 149 148 152 142 148 154 158 161 165 168 173 182 190 190 184 189 179 191 197 188
168 171 194 211 220 223 230 239 246 247 241 203 192 196 189 193 214 229 234 232 228 232 240 236 237 239 210 218 227 227 234 247 257 258 196 114 108 127 139 158 180 227 213 237 240 195 213 234 237 249 100 134 152 154 163 169 173 173 177 178 191 169 158 156 169 159 149 136 147 150 152 152 162 166 171 168 168 179 189 186 186 194 188 185 189 193 198
133 161 176 196 203 215 230 240 247 248 250 213 181 206 198 193 209 224 232 231 224 223 234 240 236 237 235 232 229 226 228 241 249 248 211 154 137 144 171 202 231 275 40 101 50 67 189 211 246 242 116 152 150 161 160 163 153 164 176 175 171 172 164 160 160 156 136 138 133 143 155 157 170 169 169 175 179 183 184 184 189 189 192 193 197 200 191
153 151 198 222 230 230 238 240 234 246 250 238 222 225 222 216 222 232 235 235 238 230 229 237 237 235 238 229 212 207 221 229 248 247 221 220 194 173 127 100 31 41 45 52 25 340 184 231 341 93 139 150 157 157 168 163 162 163 159 149 154 143 144 165 144 134 123 136 145 151 153 162 162 163 190 180 183 178 186 187 187 189 201 197 205 191 186
199 221 232 219 189 202 216 234 231 236 249 248 239 236 229 222 222 230 237 237 237 242 230 232 235 231 194 200 204 201 183 190 245 235 221 213 182 121 80 63 53 58 54 29 358 358 27 54 83 103 105 129 139 152 155 159 163 155 140 135 145 138 149 151 146 132 137 149 153 153 149 154 165 174 177 182 188 191 195 188 192 197 195 199 206 187 224
229 238 239 244 227 212 214 225 227 221 228 242 240 225 225 223 219 230 241 235 235 241 247 239 220 194 187 190 194 199 190 216 238 56 85 90 91 94 102 83 81 75 58 39 25 41 48 30 67 85 91 99 119 136 147 158 154 138 123 130 122 133 141 140 148 146 148 152 144 151 158 165 181 168 174 183 194 198 194 196 199 196 199 202 204 180 215
216 230 247 248 248 236 221 231 247 263 246 244 252 226 212 216 214 226 235 240 3 40 39 60 140 144 173 192 209 212 215 231 86 93 94 99 113 117 104 100 102 88 86 32 149 65 54 88 101 119 122 133 134 117 137 135 124 111 123 125 128 126 124 129 131 119 124 133 142 150 163 147 142 159 179 188 198 200 201 205 202 208 203 207 197 192 199
156 219 240 272 28 41 28 30 38 27 344 314 323 330 241 341 10 351 34 50 40 42 29 12 125 183 195 160 75 69 63 53 60 78 92 109 114 107 103 97 93 104 150 100 81 68 41 84 123 124 121 131 146 142 129 135 132 118 119 121 123 123 128 122 123 129 131 123 130 139 132 137 175 186 183 198 203 204 205 210 207 203 208 205 199 205 210
36 44 48 57 38 77 72 50 351 355 111 106 57 50 53 69 4 74 70 69 58 11 357 81 116 102 100 93 74 70 57 29 43 67 72 78 89 99 98 110 102 142 69 55 54 109 74 115 126 122 114 117 116 117 117 103 104 110 108 112 120 122 131 130 134 134 145 148 152 152 161 178 181 188 195 198 204 205 205 208 209 207 208 211 213 216 218
39 33 49 51 65 77 93 68 41 31 14 72 105 58 29 18 304 111 88 69 24 330 28 121 124 114 115 115 104 71 46 37 46 64 66 62 53 69 61 43 41 35 52 323 309 87 116 125 139 122 98 84 93 100 109 116 116 103 110 112 116 125 129 135 144 145 148 145 157 170 170 182 186 188 192 195 196 198 203 206 207 205 211 225 227 224 217
30 23 10 4 54 62 63 63 52 40 32 23 27 28 350 345 356 61 94 76 25 14 359 101 143 121 119 111 109 81 51 43 58 79 87 96 97 104 112 102 89 60 37 15 60 107 122 135 131 112 106 111 117 121 125 128 118 105 105 109 113 112 122 126 129 139 148 154 159 160 180 184 193 197 198 199 196 199 203 198 202 210 222 227 231 238 234
8 359 5 27 40 54 53 66 58 51 36 32 31 7 1 347 327 31 33 20 359 5 14 46 106 89 86 94 86 90 82 60 62 67 81 109 110 151 113 99 79 59 20 32 66 104 122 123 107 104 100 110 111 116 120 129 119 122 125 128 133 136 136 150 157 162 166 175 176 185 190 190 186 198 203 203 212 206 205 207 204 199 199 216 227 229 236
4 351 358 38 49 50 59 66 78 58 40 28 15 12 9 12 34 41 25 11 20 27 39 39 64 100 104 95 95 91 75 58 57 45 37 38 20 1 111 92 73 70 83 94 99 110 112 99 78 92 100 109 111 127 129 135 129 129 132 137 147 153 149 152 161 174 168 174 180 188 188 194 197 202 201 205 211 211 210 205 211 208 211 209 220 231 239
359 14 17 3 16 49 67 74 76 90 83 40 23 10 9 15 43 52 51 41 43 52 62 72 76 84 86 94 98 89 82 80 76 80 69 54 39 352 36 80 90 94 86 98 107 108 105 107 100 94 100 105 122 128 127 123 127 132 136 145 146 157 162 166 168 174 173 185 190 193 190 197 199 203 206 208 211 211 213 209 211 217 213 207 214 224 232
13 15 15 30 20 359 357 57 101 103 91 65 33 27 42 39 36 46 58 64 61 57 55 58 62 68 73 80 91 97 104 108 116 131 112 118 107 58 31 35 82 91 94 88 85 89 94 92 94 106 108 118 126 130 120 122 133 138 147 152 163 169 173 179 182 187 189 190 192 198 194 195 202 210 206 212 216 218 210 213 217 214 216 218 222 225 230
32 35 37 34 20 30 30 14 6 11 34 72 62 39 27 42 48 45 66 77 76 65 61 61 59 64 65 46 52 49 48 31 19 341 356 127 106 75 70 8 68 93 72 67 82 83 79 87 110 115 116 124 127 120 107 119 131 133 138 147 168 184 195 196 204 203 207 213 212 215 208 207 210 213 214 217 215 221 218 214 218 217 220 227 224 226 232
50 53 52 58 56 53 41 37 31 40 16 18 41 43 25 12 25 32 29 41 64 58 56 57 62 53 65 78 80 64 72 64 54 39 45 14 43 59 45 31 39 61 73 43 81 80 78 92 112 111 114 114 123 115 89 110 134 143 165 171 181 192 205 215 215 219 218 213 219 222 223 224 222 226 230 236 236 234 237 235 239 233 227 227 227 223 231
83 78 69 84 88 79 68 57 45 46 45 43 37 33 13 4 13 27 24 29 44 51 52 47 46 22 5 23 23 44 78 79 70 56 37 35 49 50 60 55 62 70 86 73 85 89 107 110 109 117 125 137 161 152 129 141 173 195 187 208 205 210 218 220 219 220 226 227 225 229 240 238 240 234 229 227 233 234 236 230 230 232 230 226 228 234 236
61 80 90 104 104 103 96 85 79 73 68 60 61 48 20 8 20 25 23 27 33 34 39 42 38 21 15 23 38 57 2 351 77 68 57 38 44 41 31 34 55 78 81 83 78 73 83 96 114 129 133 150 179 216 195 213 201 225 223 215 226 228 230 230 229 224 228 229 216 219 224 224 231 233 238 238 241 237 236 234 236 233 231 229 231 225 231
53 63 97 82 73 79 90 96 94 90 83 87 86 87 54 20 65 56 47 28 32 41 50 45 39 26 34 28 26 27 37 17 24 81 71 37 37 55 56 66 69 34 55 70 58 76 84 83 95 110 140 196 237 229 236 232 220 232 230 228 231 228 228 232 233 232 234 229 228 225 230 229 227 222 226 227 231 232 227 228 230 230 233 233 236 237 232
105 123 84 60 56 42 30 66 72 75 97 91 86 85 335 302 76 55 44 35 34 41 47 37 33 32 23 16 15 25 13 34 58 72 74 67 59 65 61 56 53 33 26 49 87 122 116 102 87 196 236 238 246 254 246 257 246 229 238 240 237 244 237 233 246 244 239 245 242 238 234 232 232 231 233 239 238 236 233 234 237 239 239 240 242 241 237
25 40 52 64 73 73 39 48 63 68 74 70 73 70 51 68 81 77 64 20 13 46 53 53 44 40 32 36 36 29 8 19 48 46 70 80 74 58 48 49 50 31 1 1 357 2 3 308 348 292 257 265 271 267 259 250 259 256 243 248 241 251 260 240 228 235 235 237 241 241 241 243 240 241 238 238 239 239 238 240 242 238 230 228 230 232 234
47 60 74 80 79 81 76 75 70 71 72 74 67 66 68 81 92 89 75 24 16 37 31 45 60 37 22 23 33 31 30 19 27 49 52 50 33 56 108 294 284 308 351 334 335 315 296 299 278 266 267 283 276 269 269 263 247 251 251 244 245 244 238 244 250 249 244 231 230 240 244 242 241 241 243 242 243 245 247 245 245 242 239 239 237 241 244